Regional Weather Roundup
Issued by NWS

Home | Current Version | Previous Version | Text Only | Print | Product List | Glossary Off
Versions: 1 2 3 4 5 6 7 8 9 10 11 12 13 14 15 16 17 18 19 20 21 22 23 24 25 26 27 28 29 30 31 32 33 34 35 36 37 38 39 40 41 42 43 44 45 46 47 48 49 50

000
ASUS43 KMKX 160810
RWRWI

WISCONSIN REGIONAL WEATHER ROUNDUP
NATIONAL WEATHER SERVICE MILWAUKEE/SULLIVAN WI
200 AM CST SAT DEC 16 2017

NOTE: "FAIR" INDICATES FEW OR NO CLOUDS BELOW 12,000 FEET WITH NO
SIGNIFICANT WEATHER AND/OR OBSTRUCTIONS TO VISIBILITY.

WIZ001-002-006>008-014>016-023>028-160900-
NORTHWEST WISCONSIN

CITY           SKY/WX    TMP DP  RH WIND       PRES   REMARKS
SUPERIOR ARPT  CLOUDY    16  13  89 E3        29.80R
ASHLAND        CLOUDY     9   4  80 CALM      29.81R
HAYWARD        LGT SNOW  16  11  80 E5        29.75R WCI   9
SIREN          LGT SNOW  19  17  89 E5        29.73S WCI  12
CUMBERLAND     LGT SNOW  19  18  93 E6        29.71R WCI  11
RICE LAKE      LGT SNOW  20  18  91 CALM      29.74R
CHETEK         CLOUDY    19  17  90 E3        29.73R
LADYSMITH      LGT SNOW  18  15  88 E7        29.76R WCI   9
EAU CLAIRE     LGT SNOW  23  21  92 NE6       29.72R FOG     WCI  16
MENOMONIE      CLOUDY    25  23  93 E6        29.72R WCI  18
NEW RICHMOND   MIX PCPN  24  21  89 E7        29.69S WCI  16
OSCEOLA        FLURRIES  25  22  90 E6        29.73R WCI  18
$$

WIZ003>005-009-010-017-018-160900-
NORTH CENTRAL WISCONSIN

CITY           SKY/WX    TMP DP  RH WIND       PRES   REMARKS
MANITOWISH WTR CLOUDY     7   5  91 CALM      29.77R
ARBOR VITAE    CLOUDY    11   7  82 CALM      29.76R
WOODRUFF       CLOUDY    11   7  82 CALM      29.76R
RHINELANDER    CLOUDY    10   6  84 E8        29.76R WCI  -2
EAGLE RIVER    CLOUDY    10   4  77 SE3       29.76R
LAND O LAKES   CLOUDY     9   6  86 CALM      29.78R
PHILLIPS       LGT SNOW  13  10  87 E5        29.75R WCI   5
TOMAHAWK       CLOUDY    11   8  86 CALM      29.77R FOG
MEDFORD        LGT SNOW  16  13  89 E7        29.74R WCI   6
MERRILL        LGT SNOW  14  10  87 E3        29.78R
$$

WIZ029-030-035-036-043>047-160900-
CENTRAL WISCONSIN

CITY           SKY/WX    TMP DP  RH WIND       PRES   REMARKS
WAUSAU         LGT SNOW  15  12  88 E7        29.76R FOG     WCI   5
MOSINEE        LGT SNOW  18  16  93 E7        29.77R WCI   8
MARSHFIELD     LGT SNOW  19  17  92 E8        29.73R FOG     WCI   9
STEVENS POINT  LGT SNOW  16  15  95 E7        29.78R WCI   6
WAUPACA        LGT SNOW  20  16  85 CALM      29.81S
WAUTOMA        LGT SNOW  20  17  88 E7        29.80R FOG     WCI  11
WISC RAPIDS    LGT SNOW  21  17  84 E6        29.78R FOG     WCI  13
CAMP DOUGLAS   CLOUDY    27  26  99 E5        29.74S WCI  21
$$

WIZ011>013-019>022-031-037>040-048>050-160900-
NORTHEAST WISCONSIN

CITY           SKY/WX    TMP DP  RH WIND       PRES   REMARKS
ANTIGO         LGT SNOW  11   7  85 E7        29.78R WCI   0
SHAWANO        LGT SNOW  16  12  84 CALM      29.84R
OCONTO         CLOUDY    12   8  82 CALM      29.86R
STURGEON BAY   CLOUDY    18  10  71 N6        29.85S WCI  10
GREEN BAY      LGT SNOW  17  12  80 NE6       29.84S WCI   9
MANITOWOC      LGT SNOW  16  14  93 N5        29.85S FOG     WCI   9
APPLETON       LGT SNOW  18  12  79 E9        29.80R WCI   6
CLINTONVILLE   LGT SNOW  16  12  86 E5        29.83R WCI   9
OSHKOSH        LGT SNOW  20  18  92 NE7       29.80S FOG     WCI  11
$$

WIZ032>034-041-042-053>061-160900-
SOUTHWEST WISCONSIN

CITY           SKY/WX    TMP DP  RH WIND       PRES   REMARKS
LA CROSSE      CLOUDY    32  28  85 E9        29.70F WCI  24
SPARTA         CLOUDY    28  27  96 CALM      29.73F
VIROQUA        CLOUDY    30  28  93 CALM      29.70S
BOSCOBEL       CLOUDY    30  27  88 CALM      29.74F
PRAIRIE DU CHI CLOUDY    37  22  54 S3        29.73S
PLATTEVILLE    CLOUDY    33  26  73 S9        29.77R WCI  26
$$

WIZ056-057-062-063-064-067-068-160900-
SOUTH CENTRAL WISCONSIN

CITY           SKY/WX    TMP DP  RH WIND       PRES   REMARKS
REEDSBURG      CLOUDY    29  28  98 NE3       29.74S
BARABOO/DELLS  CLOUDY    29  27  93 CALM      29.75S
LONE ROCK      CLOUDY    33  27  78 E5        29.75F WCI  29
MINERAL POINT  PTCLDY    36  27  69 S6        29.74F WCI  31
MADISON        CLOUDY    33  24  69 S5        29.78S WCI  29
MIDDLETON      CLOUDY    36  24  64 SW6       29.76S WCI  31
WATERTOWN      CLOUDY    29  28  96 CALM      29.78R
MONROE         CLOUDY    32  25  74 S12       29.77S WCI  23
JANESVILLE     CLOUDY    36  23  60 SW7       29.79R WCI  30
$$

WIZ051-052-058>065-066-070>072-160900-
SOUTHEAST WISCONSIN

CITY           SKY/WX    TMP DP  RH WIND       PRES   REMARKS
MILWAUKEE      CLOUDY    31  27  85 CALM      29.81S
WAUKESHA       CLOUDY    30  25  80 CALM      29.80R
MILWAUKEE/TIMM CLOUDY    30  27  86 CALM      29.81S
RACINE         CLOUDY    34  25  69 SW8       29.83S WCI  27
BURLINGTON     PTCLDY    34  26  72 SW9       29.81R WCI  26
KENOSHA        CLOUDY    36  23  59 SW9       29.82S WCI  29
FOND DU LAC    LGT SNOW  24  20  84 NE6       29.80S FOG     WCI  17
SHEBOYGAN      LGT SNOW  20  18  92 NE6       29.83R FOG     WCI  12
WEST BEND      LGT SNOW  25  23  93 NE3       29.80S
JUNEAU         CLOUDY    28  27  96 E3        29.79R
$$

LSZ147-162-160900-
LAKE SUPERIOR

STATION/POSITION TIME  TEMP    WIND        PRES    WAVE
                       AIR SEA DIR/SP/G            HT/PER
                 (UTC) (F)     (DEG/KT/KT) (MB)    (FT/S)
DEVILS ISLAND    0800   21      80/ 15/ 16 1011.0R
SAXON HARBOR     0740   14                 1009.8R
$$

LMZ867-665-643>646-160900-
LAKE MICHIGAN

STATION/POSITION TIME  TEMP    WIND        PRES    WAVE
                       AIR SEA DIR/SP/G            HT/PER
                 (UTC) (F)     (DEG/KT/KT) (MB)    (FT/S)
NORTHPORT PIER   0740   20     330/  2/  8 1010.8S
KEWAUNEE LAKESHO 0742   17     350/  3/  4 1010.0F
SHEBOYGAN LAKESH 0800   25      40/  9/  9 1011.1R
PORT WASHINGTON  0730   26     330/  1/  3 1010.8F
MILWAUKEE LAKESH 0750   32     170/  3/  3   N/A
KENOSHA   LAKESH 0800   37     220/  8/ 12 1010.2
$$

TC  - TEMPERATURE IN CELSIUS
VSB - VISIBILITY IN STATUTE MILES
WCI - WIND CHILL INDEX
HX  - HEAT INDEX





USA.gov is the U.S. government's official web portal to all federal, state and local government web resources and services.